Regional Weather Roundup
Issued by NWS

Home | Current Version | Previous Version | Text Only | Print | Product List | Glossary Off
Versions: 1 2 3 4 5 6 7 8 9 10 11 12 13 14 15 16 17 18 19 20 21 22 23 24 25 26 27 28 29 30 31 32 33 34 35 36 37 38 39 40 41 42 43 44 45 46 47 48 49 50

000
ASUS43 KLMK 141002
RWRKY
KENTUCKY REGIONAL WEATHER ROUNDUP
NATIONAL WEATHER SERVICE LOUISVILLE KY
500 AM EST SUN FEB 14 2016

NOTE "FAIR" INDICATES FEW OR NO CLOUDS BELOW 12,000 FEET
WITH NO SIGNIFICANT WEATHER AND/OR OBSTRUCTIONS TO VISIBILITY.

KYZ001>023-026-027-061>063-070>075-141100-
WESTERN AND SOUTH CENTRAL KENTUCKY

CITY           SKY/WX    TMP DP  RH WIND       PRES   REMARKS
PADUCAH        MIX PCPN  26   9  48 NE8       30.36R WCI  18
HENDERSON      CLOUDY    23   7  50 E7        30.41R WCI  15
OWENSBORO      CLOUDY    23   7  50 E6        30.40R WCI  16
HOPKINSVILLE   CLOUDY    26   8  47 E8        30.35F WCI  17
BOWLING GREEN  CLOUDY    25   8  48 E7        30.41R WCI  17
GLASGOW        NOT AVBL
$$

KYZ024-025-028>034-038-045-046-053-141100-
NORTH CENTRAL KENTUCKY

CITY           SKY/WX    TMP DP  RH WIND       PRES   REMARKS
LOUISVILLE/SDF CLOUDY    20   3  48 E7        30.43F WCI  11
LOUISVILLE/LOU CLOUDY    19   5  54 E9        30.44F WCI   8
FORT KNOX      CLOUDY    19   5  53 NE9       30.37F WCI   9
$$

KYZ035>037-039>044-047>052-055>060-089>105-141100-
NORTHEAST KENTUCKY

CITY           SKY/WX    TMP DP  RH WIND       PRES   REMARKS
LEXINGTON      CLOUDY    17   4  56 E8        30.43R WCI   7
COVINGTON      CLOUDY    13   3  64 E7        30.45S WCI   3
FRANKFORT      CLOUDY    17   3  54 E8        30.43F WCI   7
$$

KYZ054-064>069-076>088-106>120-141100-
SOUTHEAST KENTUCKY

CITY           SKY/WX    TMP DP  RH WIND       PRES   REMARKS
JACKSON        CLOUDY    13   0  56 NE3       30.41S
LONDON         CLOUDY    17   3  54 E6        30.40R WCI   9
SOMERSET       NOT AVBL
MIDDLESBORO    NOT AVBL
MONTICELLO     CLOUDY    20   8  60 VRB3      30.42S
$$




USA.gov is the U.S. government's official web portal to all federal, state and local government web resources and services.